Latham, NY

9:01 AM EST on January 24, 2017 (GMT -0500)
Albany International

Weather History for KALB - August, 2013

Change the Weather History Date:

Sunday, August 25, 2013

  Actual Average Record
Temperature  
Mean Temperature 66 °F 69 °F  
Max Temperature 81 °F 79 °F 99 °F (1947)
Min Temperature 50 °F 59 °F 35 °F (1940)
Degree Days  
Heating Degree Days 0 1  
Month to date heating degree days 4 8  
Since 1 June heating degree days 61 65  
Since 1 July heating degree days 6 13  
Cooling Degree Days 1 5  
Month to date cooling degree days 99 153  
Year to date cooling degree days 642 519  
Since 1 June cooling degree days 593 489  
Growing Degree Days 16 (Base 50)    
Moisture  
Dew Point 54 °F    
Average Humidity 69    
Maximum Humidity 96    
Minimum Humidity 42    
Precipitation  
Precipitation T in 0.10 in 1.74 in (1892)
Month to date precipitation 2.16 2.87  
Year to date precipitation 30.97 25.56  
Sea Level Pressure  
Sea Level Pressure 30.30 in    
Wind  
Wind Speed 4 mph (South)    
Max Wind Speed 12 mph    
Max Gust Speed 16 mph    
Visibility 10 miles    
Events Fog , Rain    
T = Trace of Precipitation, MM = Missing Value Source: NWS Daily Summary

Daily Weather History Graph

Daily Weather History Graph

Search for Another Location

Airport or City:

Trip Planner

Search our weather history database for the weather conditions in past years. The results will help you decide how hot, cold, wet, or windy it might be!

Date:

Astronomy

Aug. 25, 2013 Rise Set
Actual Time 6:12 AM EDT 7:40 PM EDT
Civil Twilight 5:43 AM EDT 8:10 PM EDT
Nautical Twilight 5:07 AM EDT 8:46 PM EDT
Astronomical Twilight 4:29 AM EDT 9:23 PM EDT
Moon 10:01 PM EDT (8/25) 11:20 AM EDT (8/25)
Length of Visible Light 14h 27m
Length of Day
13h 28m
Waning Gibbous, 76% of the Moon is Illuminated
Aug 25
Waning Gibbous
Aug 28
Last Quarter
Sep 5
New
Sep 12
First Quarter
Sep 19
Full

Hourly Weather History & Observations

Time (EDT) Temp. Heat Index Dew Point Humidity Pressure Visibility Wind Dir Wind Speed Gust Speed Precip Events Conditions
12:51 AM 55.0 °F - 51.1 °F 86% 30.34 in 10.0 mi Calm Calm - N/A   Clear
1:51 AM 54.0 °F - 50.0 °F 86% 30.34 in 10.0 mi Calm Calm - N/A   Clear
2:51 AM 54.0 °F - 51.1 °F 90% 30.34 in 10.0 mi Calm Calm - N/A   Partly Cloudy
3:51 AM 53.1 °F - 50.0 °F 89% 30.35 in 10.0 mi Calm Calm - N/A   Mostly Cloudy
4:51 AM 51.1 °F - 48.0 °F 89% 30.36 in 10.0 mi Calm Calm - N/A   Scattered Clouds
5:51 AM 52.0 °F - 48.9 °F 89% 30.37 in 10.0 mi Calm Calm - N/A Fog Patches of Fog
6:30 AM 51.8 °F - 48.2 °F 88% 30.39 in 10.0 mi Calm Calm - N/A Fog Patches of Fog
6:51 AM 52.0 °F - 50.0 °F 93% 30.39 in 10.0 mi Calm Calm - N/A Fog Patches of Fog
7:51 AM 57.9 °F - 54.0 °F 87% 30.39 in 10.0 mi Calm Calm - N/A Fog Patches of Fog
8:51 AM 62.1 °F - 55.9 °F 80% 30.40 in 10.0 mi Calm Calm - N/A   Scattered Clouds
9:51 AM 66.0 °F - 55.9 °F 70% 30.39 in 10.0 mi Calm Calm - N/A   Scattered Clouds
10:51 AM 70.0 °F - 55.9 °F 61% 30.37 in 10.0 mi South 4.6 mph - N/A   Scattered Clouds
11:51 AM 73.0 °F - 55.0 °F 53% 30.34 in 10.0 mi South 5.8 mph - N/A   Mostly Cloudy
12:51 PM 75.9 °F - 54.0 °F 46% 30.32 in 10.0 mi Variable 6.9 mph - N/A   Scattered Clouds
1:51 PM 79.0 °F - 54.0 °F 42% 30.30 in 10.0 mi Variable 5.8 mph - N/A   Scattered Clouds
2:51 PM 80.1 °F 80.1 °F 55.0 °F 42% 30.27 in 10.0 mi Variable 5.8 mph - N/A   Scattered Clouds
3:51 PM 80.1 °F 80.2 °F 55.9 °F 43% 30.27 in 10.0 mi South 4.6 mph - N/A   Scattered Clouds
4:51 PM 81.0 °F 80.7 °F 55.0 °F 41% 30.23 in 10.0 mi South 5.8 mph - N/A   Mostly Cloudy
5:51 PM 79.0 °F - 57.0 °F 47% 30.20 in 10.0 mi South 8.1 mph - N/A   Mostly Cloudy
6:51 PM 77.0 °F - 57.0 °F 50% 30.19 in 10.0 mi South 8.1 mph - N/A   Mostly Cloudy
7:51 PM 73.9 °F - 57.9 °F 57% 30.19 in 10.0 mi South 5.8 mph - N/A   Mostly Cloudy
8:51 PM 73.9 °F - 57.0 °F 55% 30.17 in 10.0 mi SSE 5.8 mph - N/A   Overcast
9:51 PM 72.0 °F - 57.0 °F 59% 30.18 in 10.0 mi South 5.8 mph - N/A   Mostly Cloudy
10:51 PM 71.1 °F - 57.9 °F 63% 30.17 in 10.0 mi South 6.9 mph - N/A   Overcast
11:51 PM 70.0 °F - 57.9 °F 65% 30.17 in 10.0 mi South 5.8 mph - 0.00 in Rain Light Rain